CORVUS-BC 4 (43767 NORAD) Tracking and Keplerian Element Data

This shows tracking and keplerian element data for the satellite.

Feedback or suggestion? Click here.




ElementValue
Catalog43767
NameCORVUS-BC 4
Epoch Orbit3437
Epoch Day202.86523052
Epoch Year2019
RAAN274.2032
Inclination97.7421
Eccentricity0.0011155
Argument of Perigee206.6026
Mean Anonmoly153.4623
Mean Motion14.9458097
Decay Rate1.6E-06
L11 43767U 18099K 19202.86523052 .00000160 00000-0 20064-4 0 9992
L22 43767 97.7421 274.2032 0011155 206.6026 153.4623 14.94580970 34372

Live tracking and technical data element details for CORVUS-BC 4 (NORAD 43767). CORVUS-BC 4 can be tracked NOW for your location showing map with azimuth and elevation plus other details from your city location.

Track the satellite on the map from your city or location and see movement details for azimuth, elevation, latitude, longitude, range, height, and movement on the map or in text.







IsCatalogInMostPopularTable: catalog: 43767, numindb: 54
Update: records affected: 1



GetName: 43767 CORVUS-BC 4

Hit Count: updated at: Mon, 22 Jul 2019 17:22:46 GMT